{"data":{"norad_id":64896,"epoch":"2026-05-25T03:04:27.115104Z","epoch_age_seconds":57128,"freshness":"FRESH","line1":"1 64896U 25154H   26145.12809161  .00002977  00000+0  27639-3 0  9990","line2":"2 64896  97.6698 209.7551 0004711 356.5999   3.5189 14.95138069195702","mean_motion":14.95138069,"eccentricity":0.0004711,"inclination_deg":97.6698,"raan_deg":209.7551,"arg_perigee_deg":356.5999,"mean_anomaly_deg":3.5189,"bstar":0.00027639,"rev_number":19570,"period_min":96.312175434281,"perigee_km":578.66533655818,"apogee_km":585.22312509387,"semimajor_km":6960.081230826,"source":"CELESTRAK","updated_at":"2026-05-25T13:38:04.875773Z"}}